Погода в Добрине

Россия / Калужская область     55°13′49″N   36°42′11″E
темп.,
°C
ветер,
м/с
пор.,
м/с
влажн.,
%
обл.,
%
осадки,
мм/ч
давл.,
гПа
погр.,
м
25 июля, вс
вс2500:00+12с22705 0.0 101814
03:00+10сз11757 0.0 101910
06:00+13ююз116679 0.0 102027
09:00+17сз225485 0.0 1020270
12:00+20с014298 0.0 1021644
15:00+24зюз133116 0.0 10202468
18:00+23зюз223997 0.0 10201049
21:00+18с1158100 0.0 102111
26 июля, пн
пн2600:00+16зюз116411 0.0 102215
03:00+13юз117410 0.0 102310
06:00+14ю227022 0.0 102332
09:00+21ююз344662 0.0 1023413
12:00+25ююз333811 0.0 10231370
15:00+25юз233999 0.0 10222238
18:00+24юз135142 0.0 1021624
21:00+20юз236410 0.0 102243
27 июля, вт
вт2700:00+18з2267100 0.0 102241
03:00+16зсз12783 0.3 102211
06:00+17з11794 0.0 102311
09:00+24юз11514 0.0 1022392
12:00+28юз233433 0.0 10212679
15:00+27з223878 0.0 10201813
18:00+23юз475510 0.2 1019295
21:00+18з227967 0.4 101924
28 июля, ср
ср2800:00+16ююв11888 0.4 101912
03:00+15ююз22957 0.4 101823
06:00+16ю119284 0.2 101740
09:00+21ююз2371100 0.2 1016326
12:00+24юз3457100 0.0 1015796
15:00+17ююв31093100 0.7 1014392
18:00+17юв31096100 0.8 1012469
21:00+17ююв2898100 2.3 1009399
29 июля, чт
чт2900:00+17ююз2799100 1.5 1008229
03:00+17зюз399996 1.7 1007389
06:00+18з4119557 0.0 1007594
09:00+22з612712 0.0 1007915
12:00+26зсз6104729 0.0 10072116
15:00+27з694034 0.0 10072502
18:00+26з69455 0.0 10071937
21:00+19з38690 0.0 1008140